TimeCST,TemperatureF,Dew PointF,Humidity,Sea Level PressureIn,VisibilityMPH,Wind Direction,Wind SpeedMPH,Gust SpeedMPH,PrecipitationIn,Events,Conditions,WindDirDegrees,DateUTC
12:42 AM,68.0,66.2,94,30.02,7.0,WNW,11.5,-,N/A,,Clear,300,2012-11-18 06:42:00
1:42 AM,68.0,66.2,94,30.01,7.0,NW,11.5,-,N/A,,Clear,320,2012-11-18 07:42:00
2:47 AM,66.2,66.2,100,30.04,7.0,NW,10.4,-,N/A,,Scattered Clouds,310,2012-11-18 08:47:00
3:41 AM,66.2,66.2,100,30.01,7.0,NW,12.7,-,N/A,,Scattered Clouds,310,2012-11-18 09:41:00
4:41 AM,66.2,66.2,100,29.99,7.0,NNW,11.5,-,N/A,,Scattered Clouds,340,2012-11-18 10:41:00
5:53 AM,68.0,64.4,88,29.99,7.0,NNW,15.0,-,N/A,,Scattered Clouds,340,2012-11-18 11:53:00
6:46 AM,68.0,66.2,94,30.04,7.0,North,15.0,-,N/A,,Scattered Clouds,350,2012-11-18 12:46:00
7:50 AM,69.8,66.2,88,30.05,8.0,North,15.0,-,N/A,,Partly Cloudy,350,2012-11-18 13:50:00
8:45 AM,71.6,66.2,83,30.09,8.0,NNW,16.1,-,N/A,,Partly Cloudy,340,2012-11-18 14:45:00
9:45 AM,75.2,66.2,73,30.07,8.0,North,16.1,-,N/A,,Partly Cloudy,350,2012-11-18 15:45:00
10:43 AM,75.2,64.4,69,30.05,8.0,North,16.1,-,N/A,,Mostly Cloudy,360,2012-11-18 16:43:00
11:45 AM,78.8,66.2,65,30.00,8.0,North,12.7,-,N/A,,Mostly Cloudy,350,2012-11-18 17:45:00
12:44 PM,77.0,68.0,74,30.01,8.0,NW,13.8,-,N/A,,Mostly Cloudy,320,2012-11-18 18:44:00
1:49 PM,73.4,66.2,78,29.99,8.0,NW,17.3,-,N/A,,Mostly Cloudy,310,2012-11-18 19:49:00
2:45 PM,73.4,66.2,78,30.03,7.0,NW,17.3,-,N/A,,Mostly Cloudy,310,2012-11-18 20:45:00
3:41 PM,69.8,66.2,88,30.00,7.0,NW,11.5,-,N/A,,Overcast,310,2012-11-18 21:41:00
4:42 PM,71.6,66.2,83,30.02,7.0,NW,21.9,-,N/A,,Mostly Cloudy,320,2012-11-18 22:42:00
5:40 PM,71.6,66.2,83,29.99,7.0,NW,18.4,-,N/A,,Scattered Clouds,320,2012-11-18 23:40:00
6:41 PM,71.6,66.2,83,30.04,7.0,NNW,17.3,-,N/A,,Mostly Cloudy,340,2012-11-19 00:41:00
7:42 PM,71.6,66.2,83,30.05,7.0,NNW,13.8,-,N/A,,Mostly Cloudy,330,2012-11-19 01:42:00
8:42 PM,69.8,66.2,88,30.09,7.0,NNW,13.8,-,N/A,,Scattered Clouds,330,2012-11-19 02:42:00
9:42 PM,69.8,66.2,88,30.06,7.0,NW,16.1,-,N/A,,Partly Cloudy,310,2012-11-19 03:42:00
10:45 PM,69.8,66.2,88,30.06,7.0,NW,11.5,-,N/A,,Partly Cloudy,320,2012-11-19 04:45:00
11:43 PM,69.8,66.2,88,30.02,7.0,NW,9.2,-,N/A,,Partly Cloudy,310,2012-11-19 05:43:00